www.pogodaiklimat.ru

Погода и климат >> Архив погоды >> Китай >> Lu Shan


ПОГОДА в Lu Shan

  • Прогноз погоды в Lu Shan
  • Монитор погоды в Lu Shan
  • Климат города

АРХИВ ПОГОДЫ в Lu Shan

Время (UTC), дата Ветер
(напр.,м/с)
 
Видим.   Явления Облачность Т
(С)
Тd
(С)
f
(%)
Тe
(С)
Тes
(С)
Комфортность P
(гПа)
Po
(гПа)
Тmin
(С)
Tmax
(С)
R
(мм)
S
(см)
03 17.02 З 1 15 км ясно +16.2 +9.2 63 +17 +30 опасность
простуды
1022.8 1023.0
06 17.02 С 1 12 км 1/1 300 м
[]
+18.0 +8.6 54 +19 +30 1020.3 1020.0 +11.8
09 17.02 В 4 8000 м 9/9
[]
+11.0 +6.9 76 +9 +9 1022.2 1022.0
12 17.02 В 8 3300 м дымка ?/? +6.2 +5.2 93 +1 +1 1025.1 1025.0
18 17.02 С 6 2700 м дымка ?/? +4.7 +4.1 96 -1 -1 1025.5 1026.0 +18.2
21 17.02 С 2 7000 м ?/? +7.8 +6.1 89 +6 +6 1025.2 1025.0
00 18.02 С 3 6000 м дымка ?/? +7.9 +7.3 96 +5 +5 1027.8 1024.8
03 18.02 С 3 8000 м 10/10 1500 м
[]
+14.4 +8.1 66 +14 +14 1025.4 1025.0
06 18.02 С 4 9000 м ясно +15.6 +6.6 55 +15 +22 1025.2 1025.0 +4.3
09 18.02 В 3 11 км ясно +11.8 +1.7 50 +10 +11 1024.2 1024.0
12 18.02 Ю 4 13 км ясно +10.0 +1.4 55 +8 +8 1025.2 1025.0
18 18.02 Ю 4 14 км ?/? +10.5 +3.8 63 +8 +8 1019.8 888.5 +15.7
21 18.02 Ю 5 17 км ?/? +11.8 +5.2 64 +9 +9 1017.8 1018.0
00 19.02 Ю 8 18 км 5/5 200 м
[]
+13.5 +4.9 56 +11 +11 1016.5 1038.6
03 19.02 Ю 12
{18}
16 км 9/9 300 м
[]
+14.2 +6.6 60 +11 +11 1015.0 1015.0
06 19.02 Ю 7
{21}
12 км 9/9 300 м
[]
+15.7 +8.9 64 +14 +14 1011.9 1012.0 +9.4
09 19.02 Ю 5
{21}
13 км 9/9 300 м
[]
+14.4 +7.5 63 +13 +13 1010.5 1011.0
12 19.02 Ю 11
{17}
14 км 3/3 300 м
[]
+13.4 +7.0 65 +10 +10 1009.9 1010.0
18 19.02 Ю 7
{21}
17 км ?/? +13.3 +6.2 62 +11 +11 1011.1 1011.0 +16.0
21 19.02 Ю 4
{18}
17 км ?/? +13.9 +6.0 59 +13 +13 1012.1 1012.0
00 20.02 ЮЗ 2 17 км 9/9 300 м
[]
+14.1 +6.9 62 +14 +14 1014.8 1015.0
03 20.02 С 1 16 км 10/10 300 м
[]
+15.1 +7.9 62 +16 +16 1015.8 1016.0
06 20.02 В 7 <100 м туман ?/? +8.1 +8.0 99 +3 +3 1016.2 1016.0 +8.1
09 20.02 В 7 600 м туман ?/? +3.8 +3.8 100 -2 -2 1018.1 1018.0
12 20.02 В 10 200 м туман ?/? +2.5 +2.5 100 -5 -5 1019.2 1019.0
18 20.02 ЮВ 12
{17}
5000 м дымка {туман} ?/? +7.9 +7.5 97 +2 +2 1019.3 885.9 +16.5
21 20.02 Ю 9
{18}
7000 м дымка ?/? +8.4 +7.8 96 +3 +3 1019.1 1019.0
00 21.02 Ю 11
{18}
4800 м дымка 9/9
[]
+7.7 +7.4 98 +2 +2 1020.0 1020.0
03 21.02 Ю 10
{19}
300 м туман ?/? +8.3 +8.3 100 +3 +3 1018.2 1018.0
06 21.02 Ю 11
{19}
500 м туман ?/? +12.2 +12.2 100 +8 +8 1015.1 1015.0 +1.5
09 21.02 Ю 8
{25}
600 м слабый дождь ?/? +11.8 +11.8 100 +8 +8 1014.0 1014.0
12 21.02 Ю 5
{25}
100 м слабый ливневой дождь {туман} ?/? +6.5 +6.5 100 +2 +2 1017.5 1018.0 3
18 21.02 штиль 0 700 м в посл. час туман ?/? 0.0 0.0 100 -1 -1 1018.8 1019.0 +12.8 21
21 21.02 штиль 0 900 м в посл. час туман ?/? -0.5 -0.5 100 -2 -2 1018.0 1018.0
00 22.02 СЗ 1 200 м слабый дождь [диам. гололёда 29 мм] ?/? -1.5 -1.5 100 -4 -4 1021.4 1021.0 15
03 22.02 СВ 1 100 м слабый переохл. дождь (гололёд) {снег, туман} ?/? -3.6 -3.6 100 -6 -6 1025.1 1025.0
06 22.02 штиль 0 <100 м туман {снег, дождь} [диам. гололёда 30 мм] ?/? -2.5 -2.5 100 -4 -4 1023.5 1048.7 -3.9 7
09 22.02 СВ 1 100 м туман ?/? -2.9 -2.9 100 -5 -5 1024.6 1025.0
12 22.02 С 1 100 м переохл. туман [диам. гололёда 30 мм] ?/? -3.1 -3.2 99 -6 -6 1026.2 887.2
18 22.02 С 3 100 м туман ?/? -3.2 -3.3 99 -9 -9 1028.9 1029.0 +1.3
21 22.02 С 6 7000 м дымка ?/? -4.6 -5.0 97 -13 -13 1028.5 1029.0
00 23.02 СВ 8 30 км слабый снег [диам. гололёда 35 мм] 10/10 100 м
[]
-5.2 -5.6 97 -14 -14 1030.9 1031.0 4
03 23.02 С 5 30 км слабый снег 10/10 100 м
[]
-4.4 -5.1 95 -12 -12 1032.1 1032.0
06 23.02 С 4 4900 м {снег} 9/9 100 м
[]
-1.4 -3.4 86 -7 -6 1029.9 1030.0 -5.3 1
09 23.02 СВ 8 15 км 8/8
[]
-3.3 -6.6 78 -12 -12 1030.3 1030.0
12 23.02 СВ 8 23 км 6/6 300 м
[]
-4.3 -7.6 78 -13 -13 1031.6 1032.0
18 23.02 В 6 30 км ?/? -4.3 -9.7 66 -12 -12 1031.2 1031.0 -1.2
21 23.02 С 2 15 км ?/? -3.9 -6.2 84 -8 -8 1031.4 1031.0
00 24.02 В 4 13 км [диам. гололёда 27 мм] 9/9
[]
-3.1 -5.7 82 -9 -9 1032.6 892.1

 

Местоположение метеостанции Lu Shan (Китай): широта 29.58 долгота 115.98 высота над уровнем моря 1165 м.

В архиве по умолчанию представлена погода в Lu Shan за последнюю неделю. Архивные данные за месяц целиком и за предыдущие месяцы, начиная с января 2011 года, Вы можете получить, выбрав интересующий диапазон дат из раскрывающегося списка и нажав кнопку "Ввод!".

Внимание! Время в таблицах - всемирное. Для получения местного времени необходимо прибавить поправку, которая в Lu Shan равна 8 ч.

Смотрите также архив погоды в соседних городах и на ближайших метеорологических станциях:

Погода в Nanchang (Китай) (109 км)
Погода в Jingdezhen (Китай) (122 км)
Погода в Anqing (Китай) (148 км)
Погода в Xiushui (Китай) (149 км)
Погода в Macheng (Китай) (203 км)
Погода в Huoshan (Китай) (205 км)
Погода в Wuhan (Китай) (212 км)
Погода в Huang Shan (Китай) (218 км)
Погода в Nancheng (Китай) (232 км)
Погода в Yichun (Китай) (252 км)

Пояснения к столбцам:

Ветер - указаны скорость ветра в м/с - средняя за 10 мин, порывы в срок и между сроками (в фигурных скобках) и направление, откуда дует ветер: С - северный, СВ - северо-восточный, В - восточный, ЮВ - юго-восточный, Ю - южный, ЮЗ - юго-западный, З - западный, СЗ - северо-западный.
Видимость - горизонтальная дальность видимости в метрах или километрах. При видимости от 1 до 10 км при отсутствии осадков обычно наблюдается дымка, при ухудшении видимости до 1 км и менее - туман. В сухую погоду видимость может ухудшаться дымом, пылью или мглою.
Явления - указаны атмосферные явления, наблюдавшиеся в срок или в последний час перед сроком; фигурными скобками обозначены явления, наблюдавшиеся между сроками (за 1-3 часа до срока); квадратными скобками обозначены град или гололедные отложения с указанием их диаметра в мм.
Облачность - указаны через наклонную черту общая и нижняя облачность в баллах и высота нижней границы облаков в метрах; квадратными скобками обозначены формы облаков: Ci - перистые, Cs - перисто-слоистые, Cc - перисто-кучевые, Ac - высококучевые, As - высокослоистые, Sc - слоисто-кучевые, Ns - слоисто-дождевые, Cu - кучевые, Cb - кучево-дождевые. Подробнее классификацию облаков см. в Атласе облаков (PDF).
T - Температура воздуха - температура, измеренная на высоте 2 м над землей.
Td - Температура точки росы - температура, при понижении до которой содержащийся в воздухе водяной пар достигнет насыщения.
f - Относительная влажность воздуха - влажноcть воздуха, измеренная на высоте 2 м над землей.
Te - Эффективная температура - температура, которую ощущает одетый по сезону человек в тени. Характеристика душности погоды. При расчете учитывается влияние влажности воздуха и скорости ветра на теплоощущения человека.
Tes - Эффективная температура на солнце - температура, которую ощущает человек, с поправкой на солнечный нагрев. Характеристика знойности погоды. Зависит от высоты солнца над горизонтом, облачности и скорости ветра. Ночью, в пасмурную погоду, а также при ветре 12 м/с и более поправка равна нулю.
P - Атмосферное давление - приведенное к уровню моря атмосферное давление.
Po - Атмосферное давление - измеренное на уровне метеостанции атмосферное давление.
Tmin - Минимальная температура - минимум температуры воздуха на высоте 2 м над землей.
Tmax - Максимальная температура - максимум температуры воздуха на высоте 2 м над землей.
R - Количество осадков - Количество выпавших осадков, мм. При наведении курсора мыши на число - период времени, за который выпало указанное количество осадков.
S - Снежный покров - Высота снежного покрова, см. При наведении курсора мыши на число - состояние снежного покрова и степень покрытия местности в баллах.